When you browse on this site, cookies collect data to enhance your experience and personalize the content and advertising you see.
Visit our Privacy Policy to learn more. By continuing to use the site, you agree to this use of cookies and data.
  • In Hungary
  • List of Countries
  • For 7 days
  • Water Temperature
  • Weather Map
  • News
  • Weather Widgets
  • user-avatar
    Login

    Hourly Weather Almeirim

    Today, 18 November, Monday

    Time Temperature Precipitation Wind Pressure Humidity
    00:00 +9°C° 0 mm 3 mps 760 mmHg 87%
    01:00 +9°C° 0 mm 3 mps 760 mmHg 88%
    02:00 +9°C° 0 mm 3 mps 760 mmHg 89%
    03:00 +9°C° 0 mm 3 mps 760 mmHg 90%
    04:00 +9°C° 0 mm 3 mps 760 mmHg 90%
    05:00 +9°C° 0 mm 3 mps 760 mmHg 90%
    06:00 +10°C° 0 mm 3 mps 761 mmHg 87%
    07:00 +11°C° 0 mm 3 mps 761 mmHg 83%
    08:00 +11°C° 0 mm 4 mps 761 mmHg 79%
    09:00 +12°C° 0 mm 4 mps 761 mmHg 73%
    10:00 +14°C° 0 mm 4 mps 761 mmHg 66%
    11:00 +16°C° 0 mm 3 mps 761 mmHg 59%
    12:00 +15°C° 0 mm 4 mps 761 mmHg 57%
    13:00 +15°C° 0 mm 4 mps 761 mmHg 56%
    14:00 +15°C° 0 mm 4 mps 761 mmHg 54%
    15:00 +14°C° 0 mm 3 mps 761 mmHg 62%
    16:00 +12°C° 0 mm 3 mps 761 mmHg 70%
    17:00 +10°C° 0 mm 3 mps 761 mmHg 78%
    18:00 +10°C° 0 mm 2 mps 762 mmHg 80%
    19:00 +9°C° 0 mm 2 mps 762 mmHg 81%
    20:00 +9°C° 0 mm 2 mps 762 mmHg 83%
    21:00 +9°C° 0 mm 1 mps 762 mmHg 84%
    22:00 +9°C° 0 mm 1 mps 762 mmHg 86%
    23:00 +7°C° 0 mm 0 mps 762 mmHg 87%

    Tomorrow, 19 November, Tuesday

    Time Temperature Precipitation Wind Pressure Humidity
    00:00 +8°C° 0 mm 0 mps 762 mmHg 86%
    01:00 +8°C° 0 mm 0 mps 761 mmHg 86%
    02:00 +8°C° 0 mm 0 mps 761 mmHg 85%
    03:00 +8°C° 0 mm 0 mps 761 mmHg 83%
    04:00 +8°C° 0 mm 0 mps 761 mmHg 80%
    05:00 +9°C° 0 mm 0 mps 761 mmHg 78%
    06:00 +10°C° 0 mm 1 mps 761 mmHg 79%
    07:00 +10°C° 0 mm 1 mps 761 mmHg 79%
    08:00 +10°C° 0 mm 1 mps 761 mmHg 80%
    09:00 +11°C° 0 mm 1 mps 761 mmHg 80%
    10:00 +10°C° 0 mm 2 mps 760 mmHg 79%
    11:00 +10°C° 0 mm 2 mps 760 mmHg 79%
    12:00 +12°C° 0.1 mm 2 mps 759 mmHg 79%
    13:00 +12°C° 0.1 mm 2 mps 759 mmHg 80%
    14:00 +11°C° 0.1 mm 3 mps 758 mmHg 80%
    15:00 +11°C° 0.5 mm 3 mps 758 mmHg 83%
    16:00 +11°C° 0.5 mm 3 mps 758 mmHg 86%
    17:00 +11°C° 0.5 mm 3 mps 758 mmHg 89%
    18:00 +11°C° 0.1 mm 3 mps 758 mmHg 90%
    19:00 +12°C° 0.1 mm 3 mps 758 mmHg 91%
    20:00 +12°C° 0.1 mm 3 mps 758 mmHg 91%
    21:00 +11°C° 0 mm 3 mps 758 mmHg 92%
    22:00 +12°C° 0 mm 2 mps 758 mmHg 93%
    23:00 +10°C° 0 mm 2 mps 757 mmHg 94%

    Day after tomorrow, 20 November, Wednesday

    Time Temperature Precipitation Wind Pressure Humidity
    00:00 +11°C° 0 mm 1 mps 757 mmHg 93%
    01:00 +10°C° 0 mm 1 mps 757 mmHg 91%
    02:00 +10°C° 0 mm 1 mps 757 mmHg 90%
    03:00 +10°C° 0 mm 1 mps 757 mmHg 89%
    04:00 +10°C° 0 mm 1 mps 757 mmHg 89%
    05:00 +9°C° 0 mm 1 mps 756 mmHg 88%
    06:00 +10°C° 0 mm 1 mps 757 mmHg 86%
    07:00 +11°C° 0 mm 1 mps 757 mmHg 83%
    08:00 +12°C° 0 mm 1 mps 757 mmHg 81%
    09:00 +13°C° 0 mm 2 mps 757 mmHg 75%
    10:00 +14°C° 0 mm 3 mps 757 mmHg 70%
    11:00 +15°C° 0 mm 4 mps 756 mmHg 64%
    12:00 +15°C° 0.4 mm 4 mps 756 mmHg 67%
    13:00 +15°C° 0.4 mm 4 mps 755 mmHg 70%
    14:00 +15°C° 0.4 mm 4 mps 755 mmHg 73%
    15:00 +14°C° 0.3 mm 3 mps 755 mmHg 78%
    16:00 +13°C° 0.3 mm 3 mps 755 mmHg 84%
    17:00 +12°C° 0.3 mm 2 mps 755 mmHg 89%
    18:00 +12°C° 0 mm 2 mps 755 mmHg 90%
    19:00 +12°C° 0 mm 2 mps 755 mmHg 90%
    20:00 +12°C° 0 mm 1 mps 755 mmHg 90%
    21:00 +12°C° 0 mm 2 mps 755 mmHg 91%
    22:00 +12°C° 0 mm 2 mps 755 mmHg 92%
    23:00 +12°C° 0 mm 2 mps 755 mmHg 93%

    21 November, Thursday

    Time Temperature Precipitation Wind Pressure Humidity
    00:00 +12°C° 0.2 mm 2 mps 755 mmHg 93%
    01:00 +12°C° 0.2 mm 2 mps 755 mmHg 93%
    02:00 +13°C° 0.2 mm 2 mps 755 mmHg 94%
    03:00 +13°C° 0.1 mm 2 mps 754 mmHg 94%
    04:00 +12°C° 0.1 mm 2 mps 754 mmHg 94%
    05:00 +12°C° 0.1 mm 2 mps 754 mmHg 94%
    06:00 +13°C° 0.2 mm 2 mps 754 mmHg 93%
    07:00 +12°C° 0.2 mm 3 mps 754 mmHg 91%
    08:00 +13°C° 0.2 mm 3 mps 754 mmHg 90%
    09:00 +13°C° 1 mm 3 mps 754 mmHg 91%
    10:00 +14°C° 1 mm 2 mps 754 mmHg 92%
    11:00 +14°C° 1 mm 2 mps 754 mmHg 94%
    12:00 +14°C° 0.4 mm 2 mps 754 mmHg 90%
    13:00 +15°C° 0.4 mm 2 mps 753 mmHg 87%
    14:00 +15°C° 0.4 mm 1 mps 753 mmHg 83%
    15:00 +14°C° 0 mm 2 mps 753 mmHg 86%
    16:00 +13°C° 0 mm 2 mps 753 mmHg 89%
    17:00 +12°C° 0 mm 2 mps 753 mmHg 93%
    18:00 +12°C° 0 mm 2 mps 753 mmHg 93%
    19:00 +12°C° 0 mm 2 mps 753 mmHg 94%
    20:00 +12°C° 0 mm 2 mps 754 mmHg 95%
    21:00 +13°C° 0.3 mm 2 mps 754 mmHg 95%
    22:00 +13°C° 0.3 mm 1 mps 754 mmHg 96%
    23:00 +13°C° 0.3 mm 1 mps 754 mmHg 96%

    22 November, Friday

    Time Temperature Precipitation Wind Pressure Humidity
    00:00 +13°C° 0.7 mm 1 mps 753 mmHg 97%
    01:00 +13°C° 0.7 mm 1 mps 753 mmHg 97%
    02:00 +13°C° 0.7 mm 1 mps 752 mmHg 97%
    03:00 +14°C° 0.6 mm 2 mps 752 mmHg 96%
    04:00 +13°C° 0.6 mm 3 mps 751 mmHg 95%
    05:00 +13°C° 0.6 mm 4 mps 751 mmHg 94%
    06:00 +14°C° 0.5 mm 4 mps 751 mmHg 93%
    07:00 +15°C° 0.5 mm 4 mps 751 mmHg 92%
    08:00 +15°C° 0.5 mm 4 mps 752 mmHg 91%
    09:00 +15°C° 0.1 mm 5 mps 752 mmHg 86%
    10:00 +15°C° 0.1 mm 5 mps 753 mmHg 81%
    11:00 +15°C° 0.1 mm 6 mps 753 mmHg 76%
    12:00 +15°C° 0 mm 6 mps 753 mmHg 74%
    13:00 +15°C° 0 mm 6 mps 754 mmHg 73%
    14:00 +15°C° 0 mm 5 mps 754 mmHg 71%
    15:00 +14°C° 0 mm 4 mps 755 mmHg 76%
    16:00 +13°C° 0 mm 3 mps 756 mmHg 82%
    17:00 +12°C° 0 mm 2 mps 757 mmHg 87%
    18:00 +12°C° 0 mm 2 mps 757 mmHg 88%
    19:00 +10°C° 0 mm 2 mps 758 mmHg 88%
    20:00 +10°C° 0 mm 2 mps 758 mmHg 89%
    21:00 +10°C° 0 mm 2 mps 759 mmHg 88%
    22:00 +12°C° 0 mm 1 mps 759 mmHg 87%
    23:00 +12°C° 0 mm 1 mps 760 mmHg 86%

    23 November, Saturday

    Time Temperature Precipitation Wind Pressure Humidity
    00:00 +12°C° 0 mm 1 mps 760 mmHg 87%
    01:00 +12°C° 0 mm 1 mps 760 mmHg 88%
    02:00 +12°C° 0 mm 1 mps 760 mmHg 90%
    03:00 +12°C° 0 mm 1 mps 760 mmHg 90%
    04:00 +13°C° 0 mm 1 mps 760 mmHg 90%
    05:00 +13°C° 0 mm 1 mps 760 mmHg 90%
    06:00 +14°C° 0.1 mm 2 mps 760 mmHg 90%
    07:00 +14°C° 0.1 mm 2 mps 761 mmHg 90%
    08:00 +14°C° 0.1 mm 3 mps 761 mmHg 91%
    09:00 +16°C° 0.1 mm 3 mps 761 mmHg 89%
    10:00 +17°C° 0.1 mm 3 mps 762 mmHg 87%
    11:00 +18°C° 0.1 mm 3 mps 762 mmHg 85%
    12:00 +19°C° 0.2 mm 3 mps 762 mmHg 85%
    13:00 +19°C° 0.2 mm 3 mps 761 mmHg 84%
    14:00 +20°C° 0.2 mm 3 mps 761 mmHg 83%
    15:00 +19°C° 0.1 mm 3 mps 761 mmHg 87%
    16:00 +18°C° 0.1 mm 2 mps 761 mmHg 91%
    17:00 +16°C° 0.1 mm 1 mps 762 mmHg 95%
    18:00 +16°C° 0 mm 1 mps 762 mmHg 96%
    19:00 +16°C° 0 mm 1 mps 762 mmHg 96%
    20:00 +15°C° 0 mm 1 mps 763 mmHg 97%
    21:00 +15°C° 0 mm 1 mps 763 mmHg 97%
    22:00 +15°C° 0 mm 1 mps 763 mmHg 97%
    23:00 +15°C° 0 mm 1 mps 763 mmHg 97%
    Show more